Torna al catalogo

CZ-6A DEB

AttivoPO
NORAD 64651·DEBRIS·🇨🇳 China

Lanciato Aug 6, 2024 da Taiyuan Satellite Launch Center

Loading…

Prossimi Passaggi (prossime 24 ore)

TLE

AggiornatoSource: Space-Track

Epoca: Sep 14, 2026, 07:49 UTC

1 64651U 24140AER 26257.32616242  .00001677  00000-0  83294-3 0  9991
2 64651  88.3510 207.3677 0075963 279.5014  79.7593 14.15181823 99630

Traccia CZ-6A DEB in tempo reale con AllMySat

Download on the App Store